User: anonymous   Login
Location: Wellington
(41.3000°S, 174.7830°E)
Time: 13:37:06
(UTC+13:00)
Language:

Cosmos 1455 - Orbit

View from above orbital plane
View from above orbital plane
View from above satellite
View from above satellite

Ground track
Ground track

The orbit data is extracted from the following two-line orbital elements,

1 14032U 83037A   19316.53264207  .00000401  00000-0  17937-4 0  9996
2 14032  82.5133 299.1780 0018760 104.5646 255.7670 15.18085990994592
Epoch (UTC): 12 November 2019 12:47:00
Eccentricity: 0.0018760
inclination: 82.5133°
perigee height: 499 km
apogee height: 524 km
right ascension of ascending node: 299.1780°
argument of perigee: 104.5646°
revolutions per day: 15.18085990
mean anomaly at epoch: 255.7670°
orbit number at epoch: 99459

The dashed part of the orbit path shows where the satellite is in the earth's shadow,  

DLR